Flag for Germany Weather past 2 weeks in Mülheim / Ruhr, North Rhine-Westphalia, Germany

Now
61 °F

Broken clouds.


Feels Like: 61 °F
Forecast: 46 / 58 °F
Wind: 3 mph from North

Location: Duesseldorf

Current Time: May 25, 2015 at 4:09:07 PM

Latest Report: May 25, 2015 at 3:50 PM


Visibility: N/A

Pressure: 29.95 "Hg

Humidity: 59%

Dew point: 46 °F

Location of Mülheim / RuhrLocation

Historic Weather in Mülheim / Ruhr — Graph

°F

Mülheim / Ruhr temperature yesterday

Maximum temperature yesterday: 68 °F (at 4:20 PM)
Minimum temperature yesterday: 46 °F (at 2:50 AM)
Average temperature yesterday: 58 °F

Past Weeks' High & Low Weather Summary

 TemperatureHumidityPressure
High79 °F (May 11, 4:20 PM)100% (May 16, 3:50 PM)30.33 "Hg (May 16, 3:50 PM)
Low37 °F (May 21, 4:20 AM)32% (May 13, 6:20 PM)29.65 "Hg (May 18, 6:20 PM)
Average56 °F65%30.07 "Hg
* Reported May 10 3:20 PM — May 25 3:20 PM, Mülheim / Ruhr, Weather by CustomWeather, © 2015

Note: Actual official high and low records may vary slightly from our data, if they occured in-between our weather recording intervals... More about our weather records

Advertising

Mülheim / Ruhr weather history for previous 24 hours

 ConditionsComfort  
Time TempWeatherWind HumidityBarometerVisibility
3:20 PM
Mon, May 25
59 °FBroken clouds.5 mph63%29.98 "HgN/A
2:20 PM57 °FBroken clouds.7 mph72%29.98 "HgN/A
1:50 PM55 °FPartly sunny.8 mph77%29.98 "HgN/A
1:20 PM55 °FPartly sunny.8 mph72%29.98 "HgN/A
12:50 PM55 °FPartly sunny.7 mph77%29.98 "HgN/A
12:20 PM54 °FPartly sunny.7 mph82%29.98 "HgN/A
11:50 AM52 °FPartly sunny.10 mph88%29.98 "HgN/A
11:20 AM54 °FDrizzle. Fog.1 mph94%29.98 "Hg2 mi
10:50 AM54 °FDrizzle. Fog.6 mph94%29.98 "Hg2 mi
10:20 AM54 °FDrizzle. Fog.6 mph94%29.98 "Hg1 mi
9:50 AM54 °FDrizzle. Fog.6 mph88%29.98 "Hg2 mi
9:20 AM54 °FDrizzle. Fog.3 mph88%30.01 "Hg3 mi
8:50 AM54 °FRain. Cloudy.3 mph88%30.01 "Hg4 mi
8:20 AM54 °FDrizzle. Mostly cloudy.2 mph82%30.01 "Hg4 mi
7:50 AM54 °FLight rain. Partly sunny.3 mph82%30.01 "HgN/A
7:20 AM54 °FCloudy.3 mph82%30.01 "HgN/A
6:50 AM52 °FPartly sunny.3 mph88%30.01 "HgN/A
6:20 AM52 °FPassing clouds.2 mph88%30.01 "HgN/A
5:50 AM52 °FLight rain. Passing clouds.1 mph88%30.01 "HgN/A
5:20 AM52 °FLight rain. Passing clouds.3 mph77%30.01 "HgN/A
4:50 AM52 °FLight rain. Passing clouds.2 mph82%30.01 "HgN/A
4:20 AM52 °FLight rain. Partly cloudy.1 mph77%30.01 "HgN/A
3:50 AM50 °FPassing clouds.1 mph82%30.01 "HgN/A
3:20 AM50 °FPartly cloudy.1 mph76%30.01 "HgN/A
2:50 AM48 °FClear.1 mph82%30.01 "Hg10 mi
2:20 AM48 °FClear.2 mph76%30.01 "Hg10 mi
1:50 AM48 °FClear.1 mph76%30.04 "Hg10 mi
1:20 AM50 °FClear.1 mph76%30.04 "Hg10 mi
12:50 AM50 °FClear.1 mph76%30.04 "Hg10 mi
12:20 AM54 °FClear.1 mph67%30.04 "Hg10 mi
11:20 PM
Sun, May 24
57 °FClear.7 mph59%30.04 "Hg10 mi
10:50 PM54 °FClear.1 mph72%30.04 "Hg10 mi
10:20 PM55 °FSunny.1 mph67%30.04 "Hg10 mi
9:50 PM57 °FSunny.1 mph63%30.04 "Hg10 mi
9:20 PM61 °FSunny.1 mph55%30.04 "Hg10 mi
8:50 PM64 °FSunny.3 mph46%30.04 "Hg10 mi
8:20 PM66 °FSunny.6 mph40%30.04 "Hg10 mi
7:50 PM68 °FSunny.7 mph38%30.04 "Hg10 mi
7:20 PM68 °FSunny.7 mph38%30.04 "Hg10 mi
6:50 PM68 °FPassing clouds.6 mph38%30.04 "HgN/A
6:20 PM68 °FSunny.5 mph40%30.04 "Hg10 mi
5:50 PM68 °FSunny.7 mph40%30.04 "Hg10 mi
5:20 PM68 °FSunny.3 mph40%30.07 "Hg10 mi
4:50 PM68 °FSunny.3 mph40%30.07 "Hg10 mi
4:20 PM68 °FPassing clouds.5 mph40%30.07 "HgN/A
Weather by CustomWeather, © 2015

See weather overviewHow to use our weather pages